"Period start","avg(HW err(1)/warn(2) (#))","avg(Visibility (m))","avg(Weather code (#))","avg(Precip intensity (mm/h))","min(HW err(1)/warn(2) (#))","max(HW err(1)/warn(2) (#))","std(HW err(1)/warn(2) (#))","med(HW err(1)/warn(2) (#))","min(Visibility (m))","max(Visibility (m))","std(Visibility (m))","med(Visibility (m))","min(Weather code (#))","max(Weather code (#))","std(Weather code (#))","med(Weather code (#))","min(Precip intensity (mm/h))","max(Precip intensity (mm/h))","std(Precip intensity (mm/h))","med(Precip intensity (mm/h))"
2014-07-25 00:00:00,0,50000,0,0.00,0,0,0,0,50000,50000,0,50000,0,0,0,0,0.00,0.00,0.00,0.00
2014-07-25 00:10:00,0,49819,0,0.00,0,0,0,0,48194,50000,542,50000,0,0,0,0,0.00,0.00,0.00,0.00
2014-07-25 00:20:00,0,49957,0,0.00,0,0,0,0,49567,50000,130,50000,0,0,0,0,0.00,0.00,0.00,0.00
2014-07-25 00:30:00,0,50000,0,0.00,0,0,0,0,50000,50000,0,50000,0,0,0,0,0.00,0.00,0.00,0.00
2014-07-25 00:40:00,0,50000,0,0.00,0,0,0,0,50000,50000,0,50000,0,0,0,0,0.00,0.00,0.00,0.00
2014-07-25 00:50:00,0,50000,0,0.00,0,0,0,0,50000,50000,0,50000,0,0,0,0,0.00,0.00,0.00,0.00
2014-07-25 01:00:00,0,49975,0,0.00,0,0,0,0,49748,50000,76,50000,0,0,0,0,0.00,0.00,0.00,0.00
2014-07-25 01:10:00,0,50000,0,0.00,0,0,0,0,50000,50000,0,50000,0,0,0,0,0.00,0.00,0.00,0.00
2014-07-25 01:20:00,0,49915,0,0.00,0,0,0,0,49150,50000,255,50000,0,0,0,0,0.00,0.00,0.00,0.00
2014-07-25 01:30:00,0,49678,0,0.00,0,0,0,0,46782,50000,965,50000,0,0,0,0,0.00,0.00,0.00,0.00
2014-07-25 01:40:00,0,50000,0,0.00,0,0,0,0,49997,50000,1,50000,0,0,0,0,0.00,0.00,0.00,0.00
2014-07-25 01:50:00,0,49557,0,0.00,0,0,0,0,46317,50000,1103,50000,0,0,0,0,0.00,0.00,0.00,0.00
2014-07-25 02:00:00,0,50000,0,0.00,0,0,0,0,50000,50000,0,50000,0,0,0,0,0.00,0.00,0.00,0.00
2014-07-25 02:10:00,0,50000,0,0.00,0,0,0,0,50000,50000,0,50000,0,0,0,0,0.00,0.00,0.00,0.00
2014-07-25 02:20:00,0,49537,0,0.00,0,0,0,0,47602,50000,778,50000,0,0,0,0,0.00,0.00,0.00,0.00
2014-07-25 02:30:00,0,39533,0,0.00,0,0,0,0,12216,50000,16084,50000,0,0,0,0,0.00,0.00,0.00,0.00
2014-07-25 02:40:00,1,47596,0,0.00,0,2,1,0,39675,50000,3536,50000,0,0,0,0,0.00,0.00,0.00,0.00
2014-07-25 02:50:00,2,48098,0,0.00,2,2,0,2,39153,50000,3516,50000,0,0,0,0,0.00,0.00,0.00,0.00
2014-07-25 03:00:00,0,49515,0,0.00,0,2,1,0,47549,50000,874,50000,0,0,0,0,0.00,0.00,0.00,0.00
2014-07-25 03:10:00,0,45608,0,0.00,0,0,0,0,32334,50000,6813,50000,0,0,0,0,0.00,0.00,0.00,0.00
2014-07-25 03:20:00,0,47219,0,0.00,0,0,0,0,34651,50000,4840,49731,0,0,0,0,0.00,0.00,0.00,0.00
2014-07-25 03:30:00,0,47982,0,0.00,0,0,0,0,45316,50000,2069,48523,0,0,0,0,0.00,0.00,0.00,0.00
2014-07-25 03:40:00,0,48933,0,0.00,0,0,0,0,44864,50000,1669,49930,0,0,0,0,0.00,0.00,0.00,0.00
2014-07-25 03:50:00,0,49930,0,0.00,0,0,0,0,49300,50000,210,50000,0,0,0,0,0.00,0.00,0.00,0.00
2014-07-25 04:00:00,0,49945,0,0.00,0,0,0,0,49541,50000,137,50000,0,0,0,0,0.00,0.00,0.00,0.00
2014-07-25 04:10:00,0,49845,0,0.00,0,0,0,0,48687,50000,392,50000,0,0,0,0,0.00,0.00,0.00,0.00
2014-07-25 04:20:00,0,49345,0,0.00,0,0,0,0,45339,50000,1413,50000,0,0,0,0,0.00,0.00,0.00,0.00
2014-07-25 04:30:00,0,47302,0,0.00,0,0,0,0,41988,50000,3048,48591,0,0,0,0,0.00,0.00,0.00,0.00
2014-07-25 04:40:00,0,45584,0,0.00,0,0,0,0,34027,50000,5574,49380,0,0,0,0,0.00,0.00,0.00,0.00
2014-07-25 04:50:00,0,49612,0,0.00,0,0,0,0,48563,50000,560,50000,0,0,0,0,0.00,0.00,0.00,0.00
2014-07-25 05:00:00,0,50000,0,0.00,0,0,0,0,50000,50000,0,50000,0,0,0,0,0.00,0.00,0.00,0.00
2014-07-25 05:10:00,0,47121,0,0.00,0,0,0,0,35410,50000,4703,50000,0,0,0,0,0.00,0.00,0.00,0.00
2014-07-25 05:20:00,0,49430,0,0.00,0,0,0,0,46396,50000,1188,50000,0,0,0,0,0.00,0.00,0.00,0.00
2014-07-25 05:30:00,0,48734,0,0.00,0,0,0,0,44161,50000,1755,49398,0,0,0,0,0.00,0.00,0.00,0.00
2014-07-25 05:40:00,0,48877,0,0.00,0,2,1,0,45535,50000,1430,49550,0,0,0,0,0.00,0.00,0.00,0.00
2014-07-25 05:50:00,0,47613,0,0.00,0,0,0,0,43306,50000,2693,49160,0,0,0,0,0.00,0.00,0.00,0.00
2014-07-25 06:00:00,0,44141,0,0.00,0,0,0,0,37539,50000,3611,43433,0,0,0,0,0.00,0.00,0.00,0.00
2014-07-25 06:10:00,0,41580,0,0.00,0,2,1,0,15013,50000,12147,48549,0,0,0,0,0.00,0.00,0.00,0.00
2014-07-25 06:20:00,1,34363,0,0.00,0,2,1,0,8746,50000,16142,41546,0,0,0,0,0.00,0.00,0.00,0.00
2014-07-25 06:30:00,0,48672,0,0.00,0,2,1,0,36721,50000,3984,50000,0,0,0,0,0.00,0.00,0.00,0.00
2014-07-25 06:40:00,0,49344,0,0.00,0,0,0,0,43439,50000,1968,50000,0,0,0,0,0.00,0.00,0.00,0.00
2014-07-25 06:50:00,0,28685,0,0.00,0,0,0,0,7077,50000,16382,22912,0,0,0,0,0.00,0.00,0.00,0.00
2014-07-25 07:00:00,0,44852,0,0.00,0,0,0,0,25374,50000,7797,48772,0,0,0,0,0.00,0.00,0.00,0.00
2014-07-25 07:10:00,0,48349,0,0.00,0,2,1,0,40738,50000,2799,49666,0,0,0,0,0.00,0.00,0.00,0.00
2014-07-25 07:20:00,0,42296,0,0.00,0,0,0,0,1261,50000,15274,50000,0,0,0,0,0.00,0.00,0.00,0.00
2014-07-25 07:30:00,0,47356,0,0.00,0,0,0,0,41961,50000,3056,48732,0,0,0,0,0.00,0.00,0.00,0.00
2014-07-25 07:40:00,0,25964,0,0.00,0,0,0,0,15768,38282,7904,25088,0,0,0,0,0.00,0.00,0.00,0.00
2014-07-25 07:50:00,0,36027,0,0.00,0,0,0,0,19126,45676,7762,35983,0,0,0,0,0.00,0.00,0.00,0.00
2014-07-25 08:00:00,0,49595,0,0.00,0,0,0,0,47349,50000,838,50000,0,0,0,0,0.00,0.00,0.00,0.00
2014-07-25 08:10:00,0,49598,0,0.00,0,0,0,0,47582,50000,824,50000,0,0,0,0,0.00,0.00,0.00,0.00
2014-07-25 08:20:00,0,49824,0,0.00,0,0,0,0,48811,50000,378,50000,0,0,0,0,0.00,0.00,0.00,0.00
2014-07-25 08:30:00,0,49096,0,0.00,0,0,0,0,43775,50000,1962,50000,0,0,0,0,0.00,0.00,0.00,0.00
2014-07-25 08:40:00,0,49186,0,0.00,0,0,0,0,45899,50000,1467,50000,0,0,0,0,0.00,0.00,0.00,0.00
2014-07-25 08:50:00,0,46681,0,0.00,0,0,0,0,38389,50000,4480,49784,0,0,0,0,0.00,0.00,0.00,0.00
2014-07-25 09:00:00,0,42834,0,0.00,0,0,0,0,17292,50000,10085,46672,0,0,0,0,0.00,0.00,0.00,0.00
2014-07-25 09:10:00,0,49474,0,0.00,0,0,0,0,47287,50000,1052,50000,0,0,0,0,0.00,0.00,0.00,0.00
2014-07-25 09:20:00,0,20598,0,0.00,0,0,0,0,5986,50000,14208,18034,0,0,0,0,0.00,0.00,0.00,0.00
2014-07-25 09:30:00,0,16711,0,0.00,0,0,0,0,8234,29954,7579,15748,0,0,0,0,0.00,0.00,0.00,0.00
2014-07-25 09:40:00,0,10677,0,0.00,0,0,0,0,6529,19449,4250,8873,0,0,0,0,0.00,0.00,0.00,0.00
2014-07-25 09:50:00,0,38579,3,0.00,0,0,0,0,8612,50000,15369,48611,0,10,5,0,0.00,0.00,0.00,0.00
2014-07-25 10:00:00,0,34942,17,0.07,0,0,0,0,7598,50000,18021,48434,0,61,27,0,0.00,0.65,0.20,0.00
2014-07-25 10:10:00,0,46393,5,0.00,0,0,0,0,28520,50000,6757,50000,0,51,15,0,0.00,0.00,0.00,0.00
2014-07-25 10:20:00,0,50000,0,0.00,0,0,0,0,50000,50000,0,50000,0,0,0,0,0.00,0.00,0.00,0.00
2014-07-25 10:30:00,0,50000,0,0.00,0,0,0,0,50000,50000,0,50000,0,0,0,0,0.00,0.00,0.00,0.00
2014-07-25 10:40:00,0,50000,0,0.00,0,0,0,0,50000,50000,0,50000,0,0,0,0,0.00,0.00,0.00,0.00
2014-07-25 10:50:00,0,50000,0,0.00,0,0,0,0,50000,50000,0,50000,0,0,0,0,0.00,0.00,0.00,0.00
2014-07-25 11:00:00,0,50000,0,0.00,0,0,0,0,50000,50000,0,50000,0,0,0,0,0.00,0.00,0.00,0.00
2014-07-25 11:10:00,0,50000,0,0.00,0,0,0,0,50000,50000,0,50000,0,0,0,0,0.00,0.00,0.00,0.00
2014-07-25 11:20:00,0,50000,0,0.00,0,0,0,0,50000,50000,0,50000,0,0,0,0,0.00,0.00,0.00,0.00
2014-07-25 11:30:00,0,50000,0,0.00,0,0,0,0,50000,50000,0,50000,0,0,0,0,0.00,0.00,0.00,0.00
2014-07-25 11:40:00,0,50000,0,0.00,0,0,0,0,50000,50000,0,50000,0,0,0,0,0.00,0.00,0.00,0.00
2014-07-25 11:50:00,0,50000,0,0.00,0,0,0,0,50000,50000,0,50000,0,0,0,0,0.00,0.00,0.00,0.00
2014-07-25 12:00:00,0,49878,0,0.00,0,0,0,0,48776,50000,367,50000,0,0,0,0,0.00,0.00,0.00,0.00
2014-07-25 12:10:00,0,50000,0,0.00,0,0,0,0,50000,50000,0,50000,0,0,0,0,0.00,0.00,0.00,0.00
2014-07-25 12:20:00,0,49838,0,0.00,0,0,0,0,48377,50000,487,50000,0,0,0,0,0.00,0.00,0.00,0.00
2014-07-25 12:30:00,0,50000,0,0.00,0,0,0,0,50000,50000,0,50000,0,0,0,0,0.00,0.00,0.00,0.00
2014-07-25 12:40:00,0,50000,0,0.00,0,0,0,0,50000,50000,0,50000,0,0,0,0,0.00,0.00,0.00,0.00
2014-07-25 12:50:00,0,50000,0,0.00,0,0,0,0,50000,50000,0,50000,0,0,0,0,0.00,0.00,0.00,0.00
2014-07-25 13:00:00,0,50000,0,0.00,0,0,0,0,50000,50000,0,50000,0,0,0,0,0.00,0.00,0.00,0.00
2014-07-25 13:10:00,0,50000,0,0.00,0,0,0,0,50000,50000,0,50000,0,0,0,0,0.00,0.00,0.00,0.00
2014-07-25 13:20:00,0,50000,0,0.00,0,0,0,0,50000,50000,0,50000,0,0,0,0,0.00,0.00,0.00,0.00
2014-07-25 13:30:00,0,47718,0,0.00,0,0,0,0,38459,50000,4172,50000,0,0,0,0,0.00,0.00,0.00,0.00
2014-07-25 13:40:00,0,50000,0,0.00,0,0,0,0,50000,50000,0,50000,0,0,0,0,0.00,0.00,0.00,0.00
2014-07-25 13:50:00,0,50000,0,0.00,0,0,0,0,50000,50000,0,50000,0,0,0,0,0.00,0.00,0.00,0.00
2014-07-25 14:00:00,0,50000,0,0.00,0,0,0,0,50000,50000,0,50000,0,0,0,0,0.00,0.00,0.00,0.00
2014-07-25 14:10:00,0,50000,0,0.00,0,0,0,0,50000,50000,0,50000,0,0,0,0,0.00,0.00,0.00,0.00
2014-07-25 14:20:00,0,50000,0,0.00,0,0,0,0,50000,50000,0,50000,0,0,0,0,0.00,0.00,0.00,0.00
2014-07-25 14:30:00,0,50000,0,0.00,0,0,0,0,50000,50000,0,50000,0,0,0,0,0.00,0.00,0.00,0.00
2014-07-25 14:40:00,0,50000,0,0.00,0,0,0,0,50000,50000,0,50000,0,0,0,0,0.00,0.00,0.00,0.00
2014-07-25 14:50:00,0,50000,0,0.00,0,0,0,0,50000,50000,0,50000,0,0,0,0,0.00,0.00,0.00,0.00
2014-07-25 15:00:00,0,50000,0,0.00,0,0,0,0,50000,50000,0,50000,0,0,0,0,0.00,0.00,0.00,0.00
2014-07-25 15:10:00,0,50000,0,0.00,0,0,0,0,50000,50000,0,50000,0,0,0,0,0.00,0.00,0.00,0.00
2014-07-25 15:20:00,0,49276,0,0.00,0,0,0,0,44774,50000,1617,50000,0,0,0,0,0.00,0.00,0.00,0.00
2014-07-25 15:30:00,0,41548,0,0.00,0,0,0,0,36383,50000,4332,40958,0,0,0,0,0.00,0.00,0.00,0.00
2014-07-25 15:40:00,0,31021,0,0.00,0,0,0,0,14208,50000,13991,25922,0,0,0,0,0.00,0.00,0.00,0.00
2014-07-25 15:50:00,0,47674,0,0.00,0,0,0,0,32544,50000,5332,50000,0,0,0,0,0.00,0.00,0.00,0.00
2014-07-25 16:00:00,0,46086,0,0.00,0,0,0,0,32232,50000,6654,50000,0,0,0,0,0.00,0.00,0.00,0.00
2014-07-25 16:10:00,0,34280,0,0.00,0,0,0,0,16337,50000,14275,33114,0,0,0,0,0.00,0.00,0.00,0.00
2014-07-25 16:20:00,0,44022,0,0.00,0,0,0,0,27524,50000,8428,49484,0,0,0,0,0.00,0.00,0.00,0.00
2014-07-25 16:30:00,0,12626,35,0.15,0,0,0,0,10084,14856,1859,12294,0,61,28,51,0.00,0.55,0.20,0.05
2014-07-25 16:40:00,0,10714,0,0.00,0,0,0,0,7320,22555,4898,8308,0,0,0,0,0.00,0.00,0.00,0.00
2014-07-25 16:50:00,0,5533,38,0.15,0,2,1,0,4456,8016,1196,5124,10,61,23,51,0.00,0.45,0.15,0.15
2014-07-25 17:00:00,2,6053,51,0.35,0,2,1,2,5484,6790,457,5978,51,51,0,51,0.10,0.55,0.12,0.33
2014-07-25 17:10:00,2,5330,51,0.75,2,2,0,2,4249,6336,642,5433,51,52,0,51,0.25,1.60,0.55,0.43
2014-07-25 17:20:00,2,5530,52,0.48,2,2,0,2,4591,6653,602,5496,51,52,0,52,0.20,0.90,0.22,0.48
2014-07-25 17:30:00,2,7126,43,0.28,2,2,0,2,4735,10150,1792,6754,10,52,16,51,0.00,0.65,0.24,0.25
2014-07-25 17:40:00,2,9185,20,0.04,2,2,0,2,5877,13534,2676,9092,10,61,20,10,0.00,0.30,0.10,0.00
2014-07-25 17:50:00,2,6493,52,0.39,2,2,0,2,5123,8231,1053,6564,51,61,3,51,0.05,0.90,0.26,0.30
2014-07-25 18:00:00,2,5510,51,0.30,2,2,0,2,4094,8467,1246,5000,51,51,0,51,0.00,0.55,0.15,0.28
2014-07-25 18:10:00,2,6668,10,0.00,2,2,0,2,3383,12617,3195,5238,10,10,0,10,0.00,0.00,0.00,0.00
2014-07-25 18:20:00,2,6112,10,0.00,2,2,0,2,3210,11822,2420,5642,10,10,0,10,0.00,0.00,0.00,0.00
2014-07-25 18:30:00,2,4979,51,0.33,2,2,0,2,3529,6808,843,4910,10,61,14,52,0.00,0.80,0.29,0.20
2014-07-25 18:40:00,2,4388,51,0.55,2,2,0,2,3312,5814,749,4272,51,52,0,51,0.20,0.95,0.28,0.47
2014-07-25 18:50:00,2,6438,14,0.01,2,2,0,2,4582,9877,1786,5506,10,51,12,10,0.00,0.05,0.02,0.00
2014-07-25 19:00:00,2,6480,50,0.37,2,2,0,2,4233,8775,1463,6574,10,61,14,52,0.00,2.00,0.57,0.15
2014-07-25 19:10:00,2,4055,52,2.25,2,2,0,2,3137,5351,624,3941,52,52,0,52,1.55,4.20,0.77,2.05
2014-07-25 19:20:00,2,4599,52,1.81,2,2,0,2,3121,6639,960,4292,52,52,0,52,0.75,4.20,0.96,1.50
2014-07-25 19:30:00,2,4026,52,3.44,2,2,0,2,3335,5163,591,3896,52,52,0,52,2.05,5.10,0.96,3.55
2014-07-25 19:40:00,2,4739,52,2.63,2,2,0,2,3467,6220,801,4618,52,53,0,52,0.95,5.85,1.29,2.60
2014-07-25 19:50:00,2,5114,52,1.36,2,2,0,2,4009,6471,886,4882,52,52,0,52,0.10,2.30,0.67,1.40
2014-07-25 20:00:00,2,8157,39,0.07,2,2,0,2,6080,10591,1547,7953,10,52,19,51,0.00,0.30,0.09,0.05
2014-07-25 20:10:00,2,8281,10,0.00,2,2,0,2,5879,11188,1873,7516,10,10,0,10,0.00,0.00,0.00,0.00
2014-07-25 20:20:00,2,10317,10,0.00,2,2,0,2,6522,14654,2485,10392,10,10,0,10,0.00,0.00,0.00,0.00
2014-07-25 20:30:00,2,10579,5,0.00,2,2,0,2,5409,29894,7113,7750,0,10,5,5,0.00,0.00,0.00,0.00
2014-07-25 20:40:00,2,5775,32,0.37,2,2,0,2,4775,6347,475,5850,10,61,23,30,0.00,2.55,0.75,0.03
2014-07-25 20:50:00,2,7883,55,0.10,2,2,0,2,6555,8861,718,8162,51,61,5,51,0.00,0.20,0.06,0.10
2014-07-25 21:00:00,2,8461,30,0.04,2,2,0,2,6800,9902,1012,8462,10,51,20,30,0.00,0.20,0.06,0.00
2014-07-25 21:10:00,2,8714,10,0.00,2,2,0,2,6440,10775,1382,8664,10,10,0,10,0.00,0.00,0.00,0.00
2014-07-25 21:20:00,2,8902,10,0.00,2,2,0,2,7075,11545,1143,8864,10,10,0,10,0.00,0.00,0.00,0.00
2014-07-25 21:30:00,2,5550,20,0.06,2,2,0,2,4114,6508,749,5779,10,61,20,10,0.00,0.45,0.14,0.00
2014-07-25 21:40:00,2,7375,55,0.12,2,2,0,2,6388,10403,1192,6872,51,61,5,51,0.00,0.40,0.11,0.10
2014-07-25 21:50:00,2,5923,51,0.47,2,2,0,2,5186,7177,618,5896,51,51,0,51,0.15,0.75,0.19,0.47
2014-07-25 22:00:00,2,7248,51,0.39,2,2,0,2,5010,9980,1394,7306,51,52,0,51,0.15,0.80,0.21,0.35
2014-07-25 22:10:00,2,12022,47,0.09,2,2,0,2,9634,14101,1671,12208,10,51,12,51,0.00,0.20,0.07,0.08
2014-07-25 22:20:00,2,13693,1,0.00,2,2,0,2,11552,16759,1520,13427,0,10,3,0,0.00,0.00,0.00,0.00
2014-07-25 22:30:00,2,9777,6,0.00,2,2,0,2,4899,13055,2600,9944,0,61,18,0,0.00,0.00,0.00,0.00
2014-07-25 22:40:00,2,5186,61,0.72,2,2,0,2,4389,5932,555,5170,61,61,0,61,0.40,1.10,0.23,0.70
2014-07-25 22:50:00,2,8534,46,0.47,2,2,0,2,5413,12728,2674,7098,10,61,23,61,0.00,3.25,0.96,0.03
2014-07-25 23:00:00,2,11637,7,0.00,2,2,0,2,9202,14004,1670,11654,0,10,5,10,0.00,0.00,0.00,0.00
2014-07-25 23:10:00,2,11316,0,0.00,2,2,0,2,10456,13120,977,10922,0,0,0,0,0.00,0.00,0.00,0.00
2014-07-25 23:20:00,2,15774,0,0.00,2,2,0,2,9718,25447,4979,14979,0,0,0,0,0.00,0.00,0.00,0.00
2014-07-25 23:30:00,2,11466,0,0.00,2,2,0,2,9815,14659,1247,11201,0,0,0,0,0.00,0.00,0.00,0.00
2014-07-25 23:40:00,2,9186,0,0.00,2,2,0,2,7151,10641,1098,9532,0,0,0,0,0.00,0.00,0.00,0.00
2014-07-25 23:50:00,2,8778,8,0.00,2,2,0,2,7269,10813,929,8794,0,10,4,10,0.00,0.00,0.00,0.00
